When you browse on this site, cookies collect data to enhance your experience and personalize the content and advertising you see.
Visit our Privacy Policy to learn more. By continuing to use the site, you agree to this use of cookies and data.
  • In United Kingdom
  • List of Countries
  • For 7 days
  • Water Temperature
  • Weather Map
  • Weather Widgets
  • user-avatar
    Login

    Hourly Weather Newport

    Today, 22 November, Friday

    Time Temperature Precipitation Wind Pressure Humidity
    00:00 +7°C° 0 mm 8 mps 743 mmHg 86%
    01:00 +7°C° 0.2 mm 8 mps 743 mmHg 85%
    02:00 +7°C° 0.2 mm 8 mps 742 mmHg 84%
    03:00 +6°C° 0.2 mm 8 mps 742 mmHg 82%
    04:00 +7°C° 0.3 mm 8 mps 742 mmHg 82%
    05:00 +7°C° 0.3 mm 8 mps 742 mmHg 83%
    06:00 +8°C° 0 mm 7 mps 742 mmHg 82%
    07:00 +7°C° 0.3 mm 8 mps 742 mmHg 83%
    08:00 +7°C° 0.3 mm 8 mps 742 mmHg 84%
    09:00 +7°C° 0.3 mm 9 mps 743 mmHg 84%
    10:00 +7°C° 0.4 mm 9 mps 742 mmHg 83%
    11:00 +7°C° 0.4 mm 9 mps 742 mmHg 82%
    12:00 +7°C° 0.4 mm 9 mps 742 mmHg 80%
    13:00 +7°C° 0.1 mm 9 mps 742 mmHg 81%
    14:00 +8°C° 0.1 mm 9 mps 741 mmHg 81%
    15:00 +8°C° 0.1 mm 9 mps 741 mmHg 81%
    16:00 +7°C° 0 mm 10 mps 741 mmHg 80%
    17:00 +7°C° 0 mm 10 mps 740 mmHg 79%
    18:00 +7°C° 0 mm 10 mps 740 mmHg 78%
    19:00 +7°C° 0.1 mm 10 mps 740 mmHg 79%
    20:00 +8°C° 0.1 mm 9 mps 740 mmHg 80%
    21:00 +8°C° 0.1 mm 9 mps 739 mmHg 82%
    22:00 +8°C° 0.7 mm 10 mps 739 mmHg 84%
    23:00 +8°C° 0.7 mm 11 mps 739 mmHg 87%

    Tomorrow, 23 November, Saturday

    Time Temperature Precipitation Wind Pressure Humidity
    00:00 +8°C° 0.7 mm 11 mps 738 mmHg 89%
    01:00 +8°C° 0.5 mm 11 mps 738 mmHg 89%
    02:00 +8°C° 0.5 mm 10 mps 738 mmHg 89%
    03:00 +8°C° 0.5 mm 10 mps 737 mmHg 89%
    04:00 +8°C° 0.1 mm 9 mps 738 mmHg 88%
    05:00 +8°C° 0.1 mm 9 mps 738 mmHg 87%
    06:00 +9°C° 0.1 mm 8 mps 738 mmHg 86%
    07:00 +9°C° 0.4 mm 7 mps 739 mmHg 89%
    08:00 +9°C° 0.4 mm 7 mps 739 mmHg 91%
    09:00 +9°C° 0.4 mm 6 mps 739 mmHg 94%
    10:00 +9°C° 1.2 mm 7 mps 740 mmHg 94%
    11:00 +9°C° 1.2 mm 8 mps 740 mmHg 93%
    12:00 +10°C° 1.2 mm 9 mps 740 mmHg 93%
    13:00 +9°C° 0.3 mm 8 mps 740 mmHg 91%
    14:00 +9°C° 0.3 mm 6 mps 741 mmHg 89%
    15:00 +9°C° 0.3 mm 5 mps 741 mmHg 88%
    16:00 +9°C° 0.1 mm 5 mps 741 mmHg 88%
    17:00 +10°C° 0.1 mm 4 mps 742 mmHg 89%
    18:00 +10°C° 0.1 mm 4 mps 742 mmHg 89%
    19:00 +10°C° 0 mm 4 mps 743 mmHg 91%
    20:00 +10°C° 0 mm 3 mps 744 mmHg 92%
    21:00 +10°C° 0 mm 3 mps 744 mmHg 93%
    22:00 +10°C° 0 mm 3 mps 744 mmHg 94%
    23:00 +10°C° 0 mm 3 mps 745 mmHg 94%

    Day after tomorrow, 24 November, Sunday

    Time Temperature Precipitation Wind Pressure Humidity
    00:00 +9°C° 0 mm 3 mps 745 mmHg 95%
    01:00 +10°C° 0 mm 3 mps 746 mmHg 95%
    02:00 +10°C° 0 mm 3 mps 746 mmHg 94%
    03:00 +10°C° 0 mm 3 mps 747 mmHg 94%
    04:00 +10°C° 0 mm 4 mps 747 mmHg 94%
    05:00 +10°C° 0 mm 4 mps 748 mmHg 94%
    06:00 +8°C° 0 mm 5 mps 748 mmHg 94%
    07:00 +9°C° 0 mm 5 mps 748 mmHg 92%
    08:00 +9°C° 0 mm 5 mps 749 mmHg 91%
    09:00 +9°C° 0 mm 5 mps 749 mmHg 89%
    10:00 +9°C° 0 mm 6 mps 749 mmHg 84%
    11:00 +9°C° 0 mm 6 mps 750 mmHg 79%
    12:00 +10°C° 0 mm 6 mps 750 mmHg 75%
    13:00 +10°C° 0 mm 6 mps 750 mmHg 75%
    14:00 +10°C° 0 mm 6 mps 750 mmHg 76%
    15:00 +9°C° 0 mm 5 mps 750 mmHg 77%
    16:00 +9°C° 0.1 mm 6 mps 750 mmHg 80%
    17:00 +9°C° 0.1 mm 7 mps 750 mmHg 83%
    18:00 +9°C° 0.1 mm 7 mps 750 mmHg 86%
    19:00 +9°C° 0 mm 8 mps 749 mmHg 85%
    20:00 +9°C° 0 mm 8 mps 749 mmHg 85%
    21:00 +9°C° 0 mm 8 mps 749 mmHg 84%
    22:00 +8°C° 0.4 mm 9 mps 748 mmHg 86%
    23:00 +8°C° 0.4 mm 10 mps 747 mmHg 88%

    25 November, Monday

    Time Temperature Precipitation Wind Pressure Humidity
    00:00 +8°C° 0.4 mm 10 mps 747 mmHg 90%
    01:00 +9°C° 0.7 mm 11 mps 746 mmHg 90%
    02:00 +9°C° 0.7 mm 12 mps 745 mmHg 90%
    03:00 +10°C° 0.7 mm 12 mps 745 mmHg 90%
    04:00 +10°C° 0.2 mm 12 mps 744 mmHg 89%
    05:00 +11°C° 0.2 mm 11 mps 744 mmHg 88%
    06:00 +11°C° 0.2 mm 11 mps 744 mmHg 88%
    07:00 +11°C° 0.5 mm 10 mps 744 mmHg 86%
    08:00 +11°C° 0.5 mm 9 mps 744 mmHg 85%
    09:00 +11°C° 0.5 mm 8 mps 744 mmHg 84%
    10:00 +11°C° 0.2 mm 9 mps 744 mmHg 83%
    11:00 +11°C° 0.2 mm 10 mps 743 mmHg 82%
    12:00 +11°C° 0.2 mm 11 mps 743 mmHg 81%
    13:00 +11°C° 0.2 mm 11 mps 743 mmHg 81%
    14:00 +11°C° 0.2 mm 10 mps 743 mmHg 81%
    15:00 +9°C° 0.2 mm 10 mps 743 mmHg 81%
    16:00 +9°C° 0.2 mm 10 mps 744 mmHg 82%
    17:00 +9°C° 0.2 mm 10 mps 744 mmHg 84%
    18:00 +9°C° 0.2 mm 11 mps 744 mmHg 86%
    19:00 +9°C° 0.1 mm 11 mps 745 mmHg 85%
    20:00 +9°C° 0.1 mm 10 mps 745 mmHg 84%
    21:00 +8°C° 0.1 mm 10 mps 746 mmHg 83%
    22:00 +8°C° 0 mm 10 mps 746 mmHg 83%
    23:00 +8°C° 0 mm 10 mps 747 mmHg 82%

    26 November, Tuesday

    Time Temperature Precipitation Wind Pressure Humidity
    00:00 +8°C° 0 mm 11 mps 747 mmHg 81%
    01:00 +8°C° 0 mm 10 mps 747 mmHg 81%
    02:00 +8°C° 0 mm 9 mps 747 mmHg 81%
    03:00 +7°C° 0 mm 8 mps 747 mmHg 80%
    04:00 +9°C° 0.2 mm 8 mps 747 mmHg 84%
    05:00 +9°C° 0.2 mm 8 mps 747 mmHg 87%
    06:00 +10°C° 0.2 mm 9 mps 746 mmHg 90%
    07:00 +10°C° 0.2 mm 9 mps 746 mmHg 89%
    08:00 +9°C° 0.2 mm 10 mps 745 mmHg 89%
    09:00 +9°C° 0.2 mm 10 mps 745 mmHg 88%
    10:00 +9°C° 0.5 mm 11 mps 744 mmHg 89%
    11:00 +9°C° 0.5 mm 11 mps 743 mmHg 90%
    12:00 +10°C° 0.5 mm 12 mps 741 mmHg 91%
    13:00 +10°C° 3.1 mm 13 mps 740 mmHg 91%
    14:00 +10°C° 3.1 mm 14 mps 739 mmHg 92%
    15:00 +10°C° 3.1 mm 15 mps 738 mmHg 92%
    16:00 +9°C° 0.7 mm 13 mps 738 mmHg 88%
    17:00 +9°C° 0.7 mm 11 mps 738 mmHg 84%
    18:00 +8°C° 0.7 mm 10 mps 737 mmHg 80%
    19:00 +8°C° 0.2 mm 10 mps 737 mmHg 80%
    20:00 +8°C° 0.2 mm 10 mps 737 mmHg 80%
    21:00 +8°C° 0.2 mm 11 mps 737 mmHg 80%
    22:00 +8°C° 1 mm 11 mps 736 mmHg 81%
    23:00 +8°C° 1 mm 11 mps 735 mmHg 82%

    27 November, Wednesday

    Time Temperature Precipitation Wind Pressure Humidity
    00:00 +8°C° 1 mm 11 mps 735 mmHg 82%
    01:00 +8°C° 0.4 mm 12 mps 734 mmHg 81%
    02:00 +8°C° 0.4 mm 13 mps 734 mmHg 79%
    03:00 +8°C° 0.4 mm 14 mps 734 mmHg 77%
    04:00 +7°C° 0.7 mm 13 mps 734 mmHg 79%
    05:00 +7°C° 0.7 mm 11 mps 734 mmHg 80%
    06:00 +7°C° 0.7 mm 10 mps 733 mmHg 82%
    07:00 +8°C° 0.4 mm 11 mps 734 mmHg 82%
    08:00 +8°C° 0.4 mm 12 mps 734 mmHg 81%
    09:00 +9°C° 0.4 mm 13 mps 734 mmHg 81%
    10:00 +8°C° 0.3 mm 14 mps 734 mmHg 81%
    11:00 +8°C° 0.3 mm 14 mps 734 mmHg 80%
    12:00 +8°C° 0.3 mm 14 mps 735 mmHg 80%
    13:00 +8°C° 0.2 mm 13 mps 735 mmHg 81%
    14:00 +8°C° 0.2 mm 11 mps 736 mmHg 81%
    15:00 +8°C° 0.2 mm 10 mps 737 mmHg 81%
    16:00 +7°C° 0.1 mm 10 mps 737 mmHg 83%
    17:00 +7°C° 0.1 mm 9 mps 738 mmHg 85%
    18:00 +7°C° 0.1 mm 9 mps 739 mmHg 87%
    19:00 +7°C° 0.1 mm 9 mps 740 mmHg 87%
    20:00 +7°C° 0.1 mm 9 mps 740 mmHg 87%
    21:00 +7°C° 0.1 mm 9 mps 741 mmHg 87%
    22:00 +7°C° 0.1 mm 9 mps 741 mmHg 87%
    23:00 +7°C° 0.1 mm 9 mps 741 mmHg 87%
    Show more